www.pogodaiklimat.ru

Погода и климат >> Архив погоды >> Украина >> Ильичевск


ПОГОДА в Ильичёвске

  • Прогноз погоды в Ильичёвске
  • Монитор погоды в Ильичёвске
  • Климат города

АРХИВ ПОГОДЫ в Ильичёвске

Время (UTC), дата Ветер
(напр.,м/с)
 
Видим.   Явления Облачность Т
(С)
Тd
(С)
f
(%)
Тe
(С)
Тes
(С)
Комфортность P
(гПа)
Po
(гПа)
Тmin
(С)
Tmax
(С)
R
(мм)
R24
(мм)
S
(см)
09 21.04 СЗ 5 н/о 9 баллов +5.4 +3.6 88 +1 +2 1007.7 1001.3
12 21.04 СЗ 8 н/о в посл. час ливневой дождь н/о +3.6 +2.6 93 -3 1010.5 1004.0 0.6
15 21.04 СЗ 8 слабый ливневой дождь н/о 93 1013.4 1006.7
18 21.04 СЗ 8 н/о слабый дождь н/о +2.6 +1.0 89 -4 1015.8 1009.3 1.0
21 21.04 З 2 н/о 8 баллов +3.8 +2.3 90 +1 1017.2 1010.7
00 22.04 З 6 н/о ясно +3.8 +0.7 80 -2 1017.2 1010.7 0.4
03 22.04 СЗ 7 н/о 7 баллов +4.0 +0.3 77 -2 -2 1017.2 1010.7
06 22.04 З 4 ясно 68 1018.3 1013.3 0.4
09 22.04 З 4 н/о 5 баллов +9.6 +2.4 61 +7 +12 1018.4 1012.0
12 22.04 З 3 20 км 4/0
[Ci sp]
+13.0 +3.0 51 +12 +21 1015.7 1016.0
15 22.04 Ю 3 7 баллов 78 1009.3
18 22.04 ЮЗ 2 7 баллов 86 1009.3
21 22.04 ЮЗ 3 7 баллов 82 1008.0
00 23.04 ЮЗ 1 н/о 7 баллов +6.2 +5.3 94 +5 +5 1013.1 1006.7
03 23.04 СЗ 2 н/о 9 баллов +6.2 +3.9 85 +4 +4 1010.4 1004.0
06 23.04 СЗ 3 н/о 7 баллов +8.8 +3.8 71 +6 +8 1010.3 1004.0
09 23.04 СВ 1 н/о 7 баллов +10.8 +6.5 75 +11 +16 1010.3 1004.0
12 23.04 СЗ 4 5 баллов 58 1005.3
15 23.04 СЗ 6 слабый дождь н/о 65 1006.7
18 23.04 З 3 3 балла 77 1008.0 0.0
21 23.04 СЗ 5 10 баллов 79 1008.0
00 24.04 СЗ 4 10 км ясно +4.2 +1.1 80 -0 -0 1013.2 1013.0
03 24.04 СЗ 6 ясно 80 1010.7
06 24.04 СЗ 6 ясно 70 1012.0
09 24.04 СЗ 6 2 балла 56 1013.3
12 24.04 СЗ 8 30 км 4/3 600 м
[Cu med, cong Ci fib]
+11.4 +0.9 48 +8 +10 1017.9 1018.0
15 24.04 СЗ 8 ясно 45 1014.7
18 24.04 СЗ 5 ясно 55 1017.3
21 24.04 З 1 ясно 67 1018.7
00 25.04 З 1 10 км ясно +4.1 -0.2 74 +3 +3 1022.7 1023.0
03 25.04 ЮЗ 1 н/о ясно +4.4 +0.7 77 +3 +3 1025.2 1018.7
06 25.04 Ю 3 2 балла 92 1026.7 1020.0
09 25.04 Ю 3 н/о 1 балл +9.7 +7.6 87 +7 +19 опасность
простуды
1026.4 1020.0
12 25.04 Ю 7 24 км 3/1 600 м
[Cu med, cong Ci fib]
+10.2 +8.1 87 +6 +9 1023.3 1023.0
15 25.04 Ю 6 ясно 82 1018.7
18 25.04 Ю 7 ясно 84 1018.7
21 25.04 Ю 6 ясно 80 1018.7
00 26.04 Ю 5 10 км ясно +7.2 +4.5 83 +3 +3 1022.7 1023.0
03 26.04 Ю 4 ясно 86 1018.7
06 26.04 Ю 5 н/о ясно +8.4 +7.2 92 +5 +8 1025.1 1018.7
09 26.04 Ю 5 н/о ясно +9.4 +7.7 89 +6 +14 1025.1 1018.7
12 26.04 Ю 4 30 км 3/3 600 м
[Cu hum]
+9.8 +7.7 87 +7 +13 1023.4 1023.0
15 26.04 Ю 4 2 балла 79 1017.3
18 26.04 Ю 4 дымка 10 баллов 97 1017.3
21 26.04 Ю 4 дымка 7 баллов 95 1017.3
00 27.04 Ю 2 н/о дымка 10 баллов +7.4 +6.7 95 +5 1022.5 1016.0
03 27.04 Ю 1 н/о 5 баллов +7.0 +6.6 97 +6 +6 1022.5 1016.0
06 27.04 Ю 4 н/о 1 балл +9.0 +7.3 89 +6 +10 1023.7 1017.3
09 27.04 ЮВ 4 ясно 85 806.8
12 27.04 Ю 4 24 км 6/0
[Ci sp]
+10.6 +6.8 77 +8 +16 700.5 701.0
15 27.04 ЮВ 2 9 баллов 80 1016.0
18 27.04 ЮВ 1 9 баллов 93 1067.2
21 27.04 Ю 2 н/о 4 балла +7.3 +6.4 94 +5 +5 1021.1 1014.7
00 28.04 Ю 2 10 км ясно +7.4 +6.7 95 +5 +5 1019.2 1019.0
03 28.04 Ю 1 н/о 4 балла +8.1 +7.7 97 +7 +7 1019.7 1013.3
06 28.04 ЮВ 3 ясно 92 1014.7

 

Местоположение метеостанции Ильичевск (Одесская область, Украина): широта 46.40 долгота 30.70 высота над уровнем моря 52 м.

В архиве по умолчанию представлена погода в Ильичёвске за последнюю неделю. Архивные данные за месяц целиком и за предыдущие месяцы, начиная с января 2011 года, Вы можете получить, выбрав интересующий диапазон дат из раскрывающегося списка и нажав кнопку "Ввод!".

Внимание! Время в таблицах - всемирное. Для получения местного времени необходимо прибавить поправку, которая в Ильичёвске равна 2 ч.

Смотрите также архив погоды в соседних городах и на ближайших метеорологических станциях:

Погода в Одессе (Одесская область, Украина) (6 км)
Погода в Белгород-Днестровском (Одесская область, Украина) (35 км)
Погода в Раздельной (Одесская область, Украина) (69 км)
Погода в Сербке (Одесская область, Украина) (69 км)
Погода в Заставе (Одесская область, Украина) (70 км)
Погода в Очакове (Николаевская область, Украина) (70 км)
Погода в Сарате (Одесская область, Украина) (90 км)
Погода в Штефан Водэ (Молдова) (94 км)
Погода в Тирасполе (Молдова) (101 км)
Погода в Вилково (Одесская область, Украина) (108 км)

Пояснения к столбцам:

Ветер - указаны скорость ветра в м/с - средняя за 10 мин, порывы в срок и между сроками (в фигурных скобках) и направление, откуда дует ветер: С - северный, СВ - северо-восточный, В - восточный, ЮВ - юго-восточный, Ю - южный, ЮЗ - юго-западный, З - западный, СЗ - северо-западный.
Видимость - горизонтальная дальность видимости в метрах или километрах. При видимости от 1 до 10 км при отсутствии осадков обычно наблюдается дымка, при ухудшении видимости до 1 км и менее - туман. В сухую погоду видимость может ухудшаться дымом, пылью или мглою.
Явления - указаны атмосферные явления, наблюдавшиеся в срок или в последний час перед сроком; фигурными скобками обозначены явления, наблюдавшиеся между сроками (за 1-3 часа до срока); квадратными скобками обозначены град или гололедные отложения с указанием их диаметра в мм.
Облачность - указаны через наклонную черту общая и нижняя облачность в баллах и высота нижней границы облаков в метрах; квадратными скобками обозначены формы облаков: Ci - перистые, Cs - перисто-слоистые, Cc - перисто-кучевые, Ac - высококучевые, As - высокослоистые, Sc - слоисто-кучевые, Ns - слоисто-дождевые, Cu - кучевые, Cb - кучево-дождевые. Подробнее классификацию облаков см. в Атласе облаков (PDF).
T - Температура воздуха - температура, измеренная на высоте 2 м над землей.
Td - Температура точки росы - температура, при понижении до которой содержащийся в воздухе водяной пар достигнет насыщения.
f - Относительная влажность воздуха - влажноcть воздуха, измеренная на высоте 2 м над землей.
Te - Эффективная температура - температура, которую ощущает одетый по сезону человек в тени. Характеристика душности погоды. При расчете учитывается влияние влажности воздуха и скорости ветра на теплоощущения человека.
Tes - Эффективная температура на солнце - температура, которую ощущает человек, с поправкой на солнечный нагрев. Характеристика знойности погоды. Зависит от высоты солнца над горизонтом, облачности и скорости ветра. Ночью, в пасмурную погоду, а также при ветре 12 м/с и более поправка равна нулю.
P - Атмосферное давление - приведенное к уровню моря атмосферное давление.
Po - Атмосферное давление - измеренное на уровне метеостанции атмосферное давление.
Tmin - Минимальная температура - минимум температуры воздуха на высоте 2 м над землей.
Tmax - Максимальная температура - максимум температуры воздуха на высоте 2 м над землей.
R - Количество осадков - Количество выпавших осадков за период времени, мм. При наведении курсора мыши на число - период времени, за который выпало указанное количество осадков.
R24 - Количество осадков - Количество выпавших осадков за 24 часа, мм.
S - Снежный покров - Высота снежного покрова, см. При наведении курсора мыши на число - состояние снежного покрова и степень покрытия местности в баллах.